REU945 LFBO-LFLL

Flight info

Callsign REU945
Flight time 0h 42m
Altitude 26000
Route MEN DCT NINUN G53 MEZIN
Aircraft B772/H-SDE2E3FGHIJ5LORVWXY/LB1D1

Departure

Time 2026-05-05 19:17
Airport Toulouse-Blagnac Airport (LFBO)

Arrival

Time 2026-05-05 20:00
Airport Lyon Saint-Exupéry Airport (LFLL)
Time Latitude Longitude Altitude Speed Heading
2026-05-05 17:54 43.63247 1.36912 501 ft 0 kts 142°
2026-05-05 19:00 43.63248 1.36912 501 ft 0 kts 142°
2026-05-05 19:00 43.63259 1.36900 501 ft 2 kts 142°
2026-05-05 19:00 43.63271 1.36887 501 ft 2 kts 142°
2026-05-05 19:00 43.63282 1.36875 501 ft 2 kts 142°
2026-05-05 19:01 43.63294 1.36863 501 ft 2 kts 147°
2026-05-05 19:01 43.63308 1.36854 501 ft 2 kts 165°
2026-05-05 19:01 43.63322 1.36851 501 ft 2 kts 178°
2026-05-05 19:01 43.63337 1.36852 501 ft 2 kts 192°
2026-05-05 19:02 43.63351 1.36859 501 ft 2 kts 206°
2026-05-05 19:02 43.63364 1.36869 501 ft 2 kts 220°
2026-05-05 19:02 43.63373 1.36883 501 ft 0 kts 233°
2026-05-05 19:02 43.63375 1.36886 501 ft 0 kts 235°
2026-05-05 19:03 43.63380 1.36896 501 ft 0 kts 235°
2026-05-05 19:08 43.63380 1.36895 501 ft 0 kts 235°
2026-05-05 19:08 43.63376 1.36888 501 ft 1 kts 234°
2026-05-05 19:09 43.63363 1.36863 501 ft 4 kts 234°
2026-05-05 19:09 43.63343 1.36825 501 ft 6 kts 233°
2026-05-05 19:09 43.63312 1.36768 501 ft 8 kts 233°
2026-05-05 19:09 43.63286 1.36713 501 ft 7 kts 243°
2026-05-05 19:10 43.63258 1.36652 503 ft 7 kts 222°
2026-05-05 19:10 43.63209 1.36632 504 ft 7 kts 166°
2026-05-05 19:10 43.63154 1.36681 504 ft 10 kts 142°
2026-05-05 19:10 43.63084 1.36753 502 ft 14 kts 143°
2026-05-05 19:11 43.63011 1.36828 501 ft 13 kts 142°
2026-05-05 19:11 43.62930 1.36913 501 ft 15 kts 142°
2026-05-05 19:11 43.62841 1.37006 501 ft 15 kts 143°
2026-05-05 19:11 43.62748 1.37101 501 ft 17 kts 143°
2026-05-05 19:12 43.62652 1.37199 501 ft 15 kts 140°
2026-05-05 19:12 43.62581 1.37276 501 ft 13 kts 142°
2026-05-05 19:12 43.62503 1.37357 501 ft 13 kts 142°
2026-05-05 19:12 43.62425 1.37438 503 ft 14 kts 143°
2026-05-05 19:13 43.62348 1.37517 504 ft 13 kts 143°
2026-05-05 19:13 43.62285 1.37582 505 ft 9 kts 142°
2026-05-05 19:13 43.62230 1.37641 506 ft 10 kts 142°
2026-05-05 19:13 43.62167 1.37706 507 ft 11 kts 142°
2026-05-05 19:14 43.62098 1.37778 509 ft 12 kts 143°
2026-05-05 19:14 43.62023 1.37855 510 ft 13 kts 143°
2026-05-05 19:14 43.61941 1.37940 511 ft 15 kts 143°
2026-05-05 19:14 43.61865 1.38020 511 ft 7 kts 142°
2026-05-05 19:15 43.61816 1.38072 511 ft 10 kts 142°
2026-05-05 19:15 43.61754 1.38137 511 ft 7 kts 143°
2026-05-05 19:15 43.61735 1.38155 511 ft 0 kts 150°
2026-05-05 19:16 43.61720 1.38165 511 ft 5 kts 158°
2026-05-05 19:16 43.61660 1.38155 511 ft 11 kts 213°
2026-05-05 19:16 43.61598 1.38061 511 ft 9 kts 239°
2026-05-05 19:16 43.61612 1.37979 511 ft 11 kts 320°
2026-05-05 19:17 43.61718 1.37867 511 ft 41 kts 322°
2026-05-05 19:17 43.62158 1.37403 505 ft 117 kts 322°
2026-05-05 19:17 43.62977 1.36542 528 ft 169 kts 320°
2026-05-05 19:17 43.63874 1.35630 1321 ft 146 kts 323°
2026-05-05 19:18 43.64663 1.34908 2004 ft 149 kts 324°
2026-05-05 19:18 43.65517 1.34000 2124 ft 162 kts 317°
2026-05-05 19:18 43.66423 1.32937 2171 ft 180 kts 317°
2026-05-05 19:18 43.67441 1.31735 2354 ft 200 kts 317°
2026-05-05 19:19 43.68562 1.30456 2670 ft 218 kts 324°
2026-05-05 19:19 43.70047 1.29772 3028 ft 237 kts 355°
2026-05-05 19:19 43.71681 1.30315 3370 ft 260 kts 29°
2026-05-05 19:19 43.72932 1.32196 3963 ft 270 kts 56°
2026-05-05 19:20 43.73861 1.34453 4672 ft 272 kts 59°
2026-05-05 19:20 43.74768 1.36735 5326 ft 275 kts 59°
2026-05-05 19:20 43.75684 1.39047 5992 ft 278 kts 59°
2026-05-05 19:20 43.76615 1.41400 6663 ft 280 kts 59°
2026-05-05 19:21 43.77545 1.43749 7299 ft 283 kts 60°
2026-05-05 19:21 43.78493 1.46142 7929 ft 286 kts 58°
2026-05-05 19:21 43.79574 1.48449 8526 ft 290 kts 54°
2026-05-05 19:21 43.80721 1.50760 9159 ft 293 kts 54°
2026-05-05 19:22 43.81875 1.53078 9771 ft 296 kts 54°
2026-05-05 19:22 43.83057 1.55453 10260 ft 305 kts 54°
2026-05-05 19:22 43.84300 1.57952 10536 ft 322 kts 54°
2026-05-05 19:22 43.85577 1.60522 11068 ft 330 kts 54°
2026-05-05 19:23 43.86886 1.63159 11782 ft 334 kts 54°
2026-05-05 19:23 43.88199 1.65808 12513 ft 338 kts 55°
2026-05-05 19:23 43.89534 1.68503 13269 ft 342 kts 55°
2026-05-05 19:23 43.90878 1.71220 14084 ft 346 kts 55°
2026-05-05 19:24 43.92242 1.73979 14953 ft 349 kts 56°
2026-05-05 19:24 43.93619 1.76767 15826 ft 354 kts 56°
2026-05-05 19:24 43.95016 1.79598 16695 ft 358 kts 56°
2026-05-05 19:24 43.96416 1.82439 17545 ft 361 kts 56°
2026-05-05 19:25 43.97843 1.85336 18388 ft 364 kts 57°
2026-05-05 19:25 43.99273 1.88244 19180 ft 368 kts 57°
2026-05-05 19:25 44.00713 1.91176 19903 ft 373 kts 57°
2026-05-05 19:25 44.02178 1.94159 20667 ft 377 kts 57°
2026-05-05 19:26 44.03657 1.97176 21444 ft 380 kts 58°
2026-05-05 19:26 44.05149 2.00221 22207 ft 383 kts 58°
2026-05-05 19:26 44.06665 2.03321 22920 ft 387 kts 58°
2026-05-05 19:26 44.08174 2.06409 23550 ft 392 kts 58°
2026-05-05 19:27 44.09718 2.09571 24201 ft 397 kts 58°
2026-05-05 19:27 44.11275 2.12765 24783 ft 401 kts 58°
2026-05-05 19:27 44.12837 2.15970 25314 ft 406 kts 58°
2026-05-05 19:27 44.14434 2.19253 25804 ft 411 kts 58°
2026-05-05 19:28 44.16045 2.22568 25926 ft 414 kts 59°
2026-05-05 19:28 44.17644 2.25860 25926 ft 410 kts 59°
2026-05-05 19:28 44.19235 2.29137 25930 ft 406 kts 59°
2026-05-05 19:28 44.20800 2.32369 25926 ft 408 kts 59°
2026-05-05 19:29 44.22385 2.35643 25928 ft 409 kts 59°
2026-05-05 19:29 44.23966 2.38914 25934 ft 410 kts 59°
2026-05-05 19:29 44.25568 2.42230 25932 ft 408 kts 59°
2026-05-05 19:29 44.27129 2.45465 25922 ft 408 kts 59°
2026-05-05 19:30 44.28713 2.48753 25940 ft 409 kts 59°
2026-05-05 19:30 44.30303 2.52058 25932 ft 409 kts 59°
2026-05-05 19:30 44.31874 2.55326 25940 ft 408 kts 59°
2026-05-05 19:30 44.33448 2.58603 25935 ft 408 kts 59°
2026-05-05 19:31 44.35025 2.61890 25930 ft 408 kts 59°
2026-05-05 19:31 44.36599 2.65177 25928 ft 409 kts 60°
2026-05-05 19:31 44.38186 2.68493 25933 ft 409 kts 60°
2026-05-05 19:31 44.39771 2.71807 25933 ft 407 kts 60°
2026-05-05 19:32 44.41332 2.75077 25925 ft 409 kts 60°
2026-05-05 19:32 44.42908 2.78383 25939 ft 412 kts 60°
2026-05-05 19:32 44.44502 2.81730 25931 ft 411 kts 60°
2026-05-05 19:32 44.46091 2.85067 25924 ft 409 kts 60°
2026-05-05 19:33 44.47659 2.88366 25933 ft 410 kts 60°
2026-05-05 19:33 44.49227 2.91672 25931 ft 413 kts 60°
2026-05-05 19:33 44.50808 2.95003 25941 ft 411 kts 60°
2026-05-05 19:33 44.52398 2.98360 25928 ft 410 kts 61°
2026-05-05 19:34 44.53975 3.01694 25933 ft 413 kts 61°
2026-05-05 19:34 44.55550 3.05027 25925 ft 413 kts 60°
2026-05-05 19:34 44.57132 3.08380 25925 ft 412 kts 60°
2026-05-05 19:35 44.60278 3.15056 25925 ft 413 kts 60°
2026-05-05 19:35 44.61831 3.18458 25918 ft 411 kts 64°
2026-05-05 19:35 44.63211 3.21914 25919 ft 410 kts 65°
2026-05-05 19:35 44.64600 3.25438 25921 ft 410 kts 65°
2026-05-05 19:36 44.65980 3.28927 25915 ft 411 kts 65°
2026-05-05 19:36 44.67368 3.32424 25907 ft 411 kts 64°
2026-05-05 19:36 44.68766 3.35942 25908 ft 410 kts 65°
2026-05-05 19:36 44.70155 3.39432 25908 ft 411 kts 65°
2026-05-05 19:37 44.71547 3.42931 25906 ft 412 kts 64°
2026-05-05 19:37 44.72932 3.46412 25908 ft 412 kts 64°
2026-05-05 19:37 44.74336 3.49944 25904 ft 412 kts 64°
2026-05-05 19:37 44.75736 3.53467 25901 ft 412 kts 64°
2026-05-05 19:38 44.77116 3.56941 25904 ft 410 kts 64°
2026-05-05 19:38 44.78506 3.60446 25897 ft 409 kts 64°
2026-05-05 19:38 44.79898 3.63961 25900 ft 412 kts 64°
2026-05-05 19:38 44.81302 3.67510 25905 ft 411 kts 65°
2026-05-05 19:39 44.82694 3.71030 25875 ft 407 kts 64°
2026-05-05 19:39 44.84053 3.74469 25591 ft 400 kts 65°
2026-05-05 19:39 44.85406 3.77899 25159 ft 398 kts 64°
2026-05-05 19:39 44.86732 3.81267 24718 ft 395 kts 64°
2026-05-05 19:40 44.88060 3.84642 24297 ft 392 kts 64°
2026-05-05 19:40 44.89362 3.87955 23887 ft 388 kts 64°
2026-05-05 19:40 44.90671 3.91290 23471 ft 384 kts 64°
2026-05-05 19:40 44.91946 3.94544 23058 ft 380 kts 64°
2026-05-05 19:41 44.93219 3.97795 22645 ft 377 kts 64°
2026-05-05 19:41 44.94474 4.01004 22248 ft 373 kts 64°
2026-05-05 19:41 44.95717 4.04187 21839 ft 370 kts 64°
2026-05-05 19:41 44.96956 4.07362 21427 ft 366 kts 64°
2026-05-05 19:42 44.98161 4.10452 21144 ft 360 kts 64°
2026-05-05 19:42 44.99351 4.13510 20761 ft 357 kts 64°
2026-05-05 19:42 45.00643 4.16470 20481 ft 353 kts 53°
2026-05-05 19:42 45.02321 4.19102 20483 ft 369 kts 49°
2026-05-05 19:43 45.04116 4.21773 20498 ft 376 kts 48°
2026-05-05 19:43 45.05911 4.24439 20357 ft 377 kts 48°
2026-05-05 19:43 45.07721 4.27129 19968 ft 378 kts 48°
2026-05-05 19:43 45.09528 4.29815 19508 ft 376 kts 48°
2026-05-05 19:44 45.11321 4.32486 19028 ft 374 kts 48°
2026-05-05 19:44 45.13097 4.35131 18571 ft 371 kts 48°
2026-05-05 19:44 45.14884 4.37797 18113 ft 369 kts 48°
2026-05-05 19:44 45.16642 4.40421 17650 ft 367 kts 47°
2026-05-05 19:45 45.18372 4.43007 17184 ft 366 kts 47°
2026-05-05 19:45 45.20110 4.45606 16722 ft 364 kts 47°
2026-05-05 19:45 45.21847 4.48209 16260 ft 362 kts 47°
2026-05-05 19:45 45.23651 4.50659 15945 ft 355 kts 37°
2026-05-05 19:46 45.25726 4.52368 15918 ft 340 kts 25°
2026-05-05 19:46 45.27879 4.53813 15777 ft 350 kts 25°
2026-05-05 19:46 45.30105 4.55290 15456 ft 366 kts 24°
2026-05-05 19:46 45.32431 4.56833 14947 ft 368 kts 24°
2026-05-05 19:47 45.34738 4.58365 14439 ft 366 kts 24°
2026-05-05 19:47 45.37039 4.59894 13939 ft 364 kts 24°
2026-05-05 19:47 45.39307 4.61403 13443 ft 362 kts 24°
2026-05-05 19:47 45.41580 4.62916 12952 ft 359 kts 24°
2026-05-05 19:48 45.43849 4.64429 12499 ft 355 kts 24°
2026-05-05 19:48 45.46069 4.65909 12058 ft 352 kts 25°
2026-05-05 19:48 45.48278 4.67384 11613 ft 348 kts 25°
2026-05-05 19:48 45.50443 4.68831 11173 ft 344 kts 25°
2026-05-05 19:49 45.52584 4.70263 10996 ft 332 kts 25°
2026-05-05 19:49 45.54614 4.71622 10991 ft 317 kts 25°
2026-05-05 19:49 45.56583 4.72941 10954 ft 310 kts 25°
2026-05-05 19:49 45.58537 4.74251 10662 ft 309 kts 25°
2026-05-05 19:50 45.60452 4.75536 10417 ft 302 kts 25°
2026-05-05 19:50 45.62324 4.76793 10139 ft 298 kts 25°
2026-05-05 19:50 45.64190 4.78047 9742 ft 298 kts 24°
2026-05-05 19:50 45.66075 4.79314 9389 ft 297 kts 24°
2026-05-05 19:51 45.67925 4.80559 9073 ft 295 kts 24°
2026-05-05 19:51 45.69783 4.81810 8721 ft 294 kts 24°
2026-05-05 19:51 45.71619 4.83047 8398 ft 292 kts 25°
2026-05-05 19:51 45.73452 4.84282 8062 ft 291 kts 25°
2026-05-05 19:52 45.75263 4.85503 7718 ft 290 kts 25°
2026-05-05 19:52 45.77090 4.86737 7414 ft 287 kts 25°
2026-05-05 19:52 45.78883 4.87949 7150 ft 283 kts 25°
2026-05-05 19:52 45.80651 4.89144 6902 ft 278 kts 25°
2026-05-05 19:53 45.82349 4.90294 6856 ft 262 kts 25°
2026-05-05 19:53 45.83932 4.91367 6827 ft 247 kts 24°
2026-05-05 19:53 45.85484 4.92418 6591 ft 246 kts 24°
2026-05-05 19:53 45.87024 4.93461 6319 ft 247 kts 25°
2026-05-05 19:54 45.88578 4.94515 6062 ft 247 kts 25°
2026-05-05 19:54 45.90124 4.95564 5809 ft 246 kts 25°
2026-05-05 19:54 45.91547 4.96969 5389 ft 252 kts 50°
2026-05-05 19:54 45.92336 4.99206 4900 ft 258 kts 78°
2026-05-05 19:55 45.92584 5.01727 4377 ft 258 kts 90°
2026-05-05 19:55 45.92269 5.04194 3870 ft 252 kts 118°
2026-05-05 19:55 45.91168 5.06084 3404 ft 244 kts 145°
2026-05-05 19:55 45.89684 5.07113 3082 ft 234 kts 169°
2026-05-05 19:56 45.88120 5.07405 3069 ft 218 kts 175°
2026-05-05 19:56 45.86695 5.07585 3009 ft 196 kts 175°
2026-05-05 19:56 45.85388 5.07745 3005 ft 184 kts 175°
2026-05-05 19:56 45.84114 5.07900 2898 ft 185 kts 175°
2026-05-05 19:57 45.82927 5.08044 2681 ft 156 kts 175°
2026-05-05 19:57 45.81879 5.08173 2489 ft 143 kts 176°
2026-05-05 19:57 45.80948 5.08285 2310 ft 127 kts 176°
2026-05-05 19:57 45.80062 5.08391 2149 ft 127 kts 176°
2026-05-05 19:58 45.79194 5.08497 1976 ft 125 kts 176°
2026-05-05 19:58 45.78330 5.08602 1809 ft 123 kts 176°
2026-05-05 19:58 45.77475 5.08707 1639 ft 124 kts 176°
2026-05-05 19:58 45.76596 5.08813 1468 ft 126 kts 176°
2026-05-05 19:59 45.75723 5.08906 1290 ft 126 kts 175°
2026-05-05 19:59 45.74848 5.09025 1127 ft 127 kts 175°
2026-05-05 19:59 45.73970 5.09136 958 ft 129 kts 176°
2026-05-05 19:59 45.73093 5.09230 837 ft 118 kts 172°
2026-05-05 20:00 45.72420 5.09320 836 ft 74 kts 175°
2026-05-05 20:00 45.72123 5.09281 836 ft 31 kts 199°
2026-05-05 20:00 45.72032 5.09225 836 ft 2 kts 206°
2026-05-05 20:00 45.72012 5.09204 836 ft 4 kts 231°
2026-05-05 20:01 45.71997 5.09145 836 ft 7 kts 254°
2026-05-05 20:01 45.71989 5.09071 836 ft 8 kts 263°
2026-05-05 20:01 45.71982 5.08972 836 ft 11 kts 264°
2026-05-05 20:01 45.71973 5.08847 836 ft 13 kts 264°
2026-05-05 20:02 45.71966 5.08744 836 ft 0 kts 265°
2026-05-05 20:02 45.71965 5.08728 836 ft 3 kts 265°
2026-05-05 20:02 45.71962 5.08681 836 ft 6 kts 265°
2026-05-05 20:02 45.71957 5.08604 836 ft 9 kts 265°
2026-05-05 20:03 45.71952 5.08517 836 ft 9 kts 265°
2026-05-05 20:03 45.71953 5.08430 836 ft 3 kts 280°
2026-05-05 20:03 45.71961 5.08382 836 ft 6 kts 284°
2026-05-05 20:03 45.71966 5.08351 836 ft 1 kts 284°
2026-05-05 20:04 45.71967 5.08349 836 ft 0 kts 284°
2026-05-05 20:05 45.71967 5.08345 836 ft 1 kts 284°
2026-05-05 20:05 45.71973 5.08316 836 ft 4 kts 288°
2026-05-05 20:06 45.71995 5.08265 836 ft 7 kts 320°
2026-05-05 20:06 45.72051 5.08259 836 ft 6 kts 10°
2026-05-05 20:06 45.72099 5.08277 836 ft 6 kts 18°
2026-05-05 20:06 45.72129 5.08292 836 ft 2 kts 18°
2026-05-05 20:07 45.72152 5.08303 836 ft 2 kts 18°
2026-05-05 20:07 45.72167 5.08301 836 ft 1 kts 323°
2026-05-05 20:07 45.72175 5.08276 836 ft 4 kts 295°
2026-05-05 20:07 45.72191 5.08239 836 ft 4 kts 301°
2026-05-05 20:08 45.72201 5.08216 836 ft 1 kts 303°
2026-05-05 20:08 45.72203 5.08211 836 ft 0 kts 303°